sat.trackr.live / text

‹ back to catalog

STARLINK-36701

NORAD 67658 · 2026-022L

PAYLOAD ACTIVE UNKNOWN

§ Identity

Operator
Country
US
Launch date
2026-02-02
Launch site
AFWTR
Launch vehicle
Mass (kg)
RCS (m²)

Purposes: comms

External: N2YO · Heavens-Above · Gunter

§ Orbital elements

Epoch: 2026-05-25T01:10:53.232672Z

Period
93.91 min
Inclination
97.2846°
Eccentricity
0.0001194
Mean motion
15.33434397 rev/d
Perigee alt
464.8 km
Apogee alt
466.4 km
Semi-major
6,843.7 km
B*
4.6088e-4
RAAN
178.2855°
Arg perigee
141.8286°
Mean anomaly
218.3042°
Rev number
1,727

§ Raw data

STARLINK-367011 67658U 26022L   26145.04922723  .00014828  00000+0  46088-3 0  99922 67658  97.2846 178.2855 0001194 141.8286 218.3042 15.33434397 17270

JSON: /api/v1/satellites/67658 · /tle

For live sub-satellite position, see the globe view (requires WebGL).

§ Visibility from observer

Set your observer location to see the next 7 days of passes ≥ 10°. The values pass through the URL so the page stays shareable.

No JS? Fill the form by hand. The geolocation button needs JavaScript.